owner,sensor,date,latitude,longitude,vertical_datum,sea_water_temperature,qcFlag
Freeport,ioos:station:wmo:42888:1,2020-04-01T00:06:00Z,27.7915,-90.2372,10.0,25.4,11111222
Freeport,ioos:station:wmo:42888:1,2020-04-01T00:16:00Z,27.7915,-90.2372,10.0,25.4,11111222
Freeport,ioos:station:wmo:42888:1,2020-04-01T00:26:00Z,27.7915,-90.2372,10.0,25.3,11111222
Freeport,ioos:station:wmo:42888:1,2020-04-01T00:36:00Z,27.7915,-90.2372,10.0,25.6,11111222
Freeport,ioos:station:wmo:42888:1,2020-04-01T00:46:00Z,27.7915,-90.2372,10.0,25.3,11111222
Freeport,ioos:station:wmo:42888:1,2020-04-01T00:56:00Z,27.7915,-90.2372,10.0,25.4,11111222
Freeport,ioos:station:wmo:42888:1,2020-04-01T01:06:00Z,27.7914,-90.2371,10.0,25.3,11111222
Freeport,ioos:station:wmo:42888:1,2020-04-01T01:16:00Z,27.7915,-90.2371,10.0,25.3,11111222
Freeport,ioos:station:wmo:42888:1,2020-04-01T01:26:00Z,27.7915,-90.2372,10.0,25.4,11111222
Freeport,ioos:station:wmo:42888:1,2020-04-01T01:36:00Z,27.7915,-90.2372,10.0,25.4,11111222
Freeport,ioos:station:wmo:42888:1,2020-04-01T01:46:00Z,27.7915,-90.2372,10.0,25.4,11111222
Freeport,ioos:station:wmo:42888:1,2020-04-01T01:56:00Z,27.7914,-90.2372,10.0,25.4,11111222
Freeport,ioos:station:wmo:42888:1,2020-04-01T02:06:00Z,27.7914,-90.2372,10.0,25.3,11111222
Freeport,ioos:station:wmo:42888:1,2020-04-01T02:16:00Z,27.7915,-90.2372,10.0,25.2,11111222
Freeport,ioos:station:wmo:42888:1,2020-04-01T02:26:00Z,27.7915,-90.2372,10.0,25.3,11111222
Freeport,ioos:station:wmo:42888:1,2020-04-01T02:36:00Z,27.7915,-90.2371,10.0,25.2,11111222
Freeport,ioos:station:wmo:42888:1,2020-04-01T02:46:00Z,27.7915,-90.2372,10.0,25.2,11111222
Freeport,ioos:station:wmo:42888:1,2020-04-01T02:56:00Z,27.7915,-90.2372,10.0,25.2,11111222
Freeport,ioos:station:wmo:42888:1,2020-04-01T03:06:00Z,27.7915,-90.2371,10.0,25.2,11111222
Freeport,ioos:station:wmo:42888:1,2020-04-01T03:16:00Z,27.7915,-90.2372,10.0,23.5,11111222
Freeport,ioos:station:wmo:42888:1,2020-04-01T03:26:00Z,27.7915,-90.2372,10.0,25.2,11111222
Freeport,ioos:station:wmo:42888:1,2020-04-01T03:36:00Z,27.7915,-90.2372,10.0,25.3,11111222
Freeport,ioos:station:wmo:42888:1,2020-04-01T03:46:00Z,27.7915,-90.2372,10.0,26.8,11111222
Freeport,ioos:station:wmo:42888:1,2020-04-01T03:56:00Z,27.7915,-90.2372,10.0,25.9,11111222
Freeport,ioos:station:wmo:42888:1,2020-04-01T04:06:00Z,27.7915,-90.2372,10.0,25.3,11111222
Freeport,ioos:station:wmo:42888:1,2020-04-01T04:16:00Z,27.7915,-90.2372,10.0,25.2,11111222
Freeport,ioos:station:wmo:42888:1,2020-04-01T04:26:00Z,27.7915,-90.2372,10.0,23.5,11111222
Freeport,ioos:station:wmo:42888:1,2020-04-01T04:36:00Z,27.7914,-90.2372,10.0,25.2,11111222
Freeport,ioos:station:wmo:42888:1,2020-04-01T04:46:00Z,27.7915,-90.2372,10.0,25.2,11111222
Freeport,ioos:station:wmo:42888:1,2020-04-01T04:56:00Z,27.7915,-90.2372,10.0,25.3,11111222
Freeport,ioos:station:wmo:42888:1,2020-04-01T05:06:00Z,27.7915,-90.2371,10.0,25.1,11111222
Freeport,ioos:station:wmo:42888:1,2020-04-01T05:16:00Z,27.7915,-90.2372,10.0,25.1,11111222
Freeport,ioos:station:wmo:42888:1,2020-04-01T05:26:00Z,27.7915,-90.2371,10.0,25.2,11111222
Freeport,ioos:station:wmo:42888:1,2020-04-01T05:36:00Z,27.7915,-90.2372,10.0,25.2,11111222
Freeport,ioos:station:wmo:42888:1,2020-04-01T05:46:00Z,27.7915,-90.2372,10.0,25.1,11111222
Freeport,ioos:station:wmo:42888:1,2020-04-01T05:56:00Z,27.7915,-90.2372,10.0,25.1,11111222
Freeport,ioos:station:wmo:42888:1,2020-04-01T06:06:00Z,27.7915,-90.2372,10.0,25.1,11111222
Freeport,ioos:station:wmo:42888:1,2020-04-01T06:16:00Z,27.7917,-90.2369,10.0,25.2,11111222
Freeport,ioos:station:wmo:42888:1,2020-04-01T06:26:00Z,27.7923,-90.2367,10.0,25.1,11111222
Freeport,ioos:station:wmo:42888:1,2020-04-01T06:36:00Z,27.7928,-90.2371,10.0,25.1,11111222
Freeport,ioos:station:wmo:42888:1,2020-04-01T06:46:00Z,27.7928,-90.2374,10.0,25.1,11111222
Freeport,ioos:station:wmo:42888:1,2020-04-01T06:56:00Z,27.7929,-90.2376,10.0,25.1,11111222
Freeport,ioos:station:wmo:42888:1,2020-04-01T07:06:00Z,27.7929,-90.2376,10.0,25.1,11111222
Freeport,ioos:station:wmo:42888:1,2020-04-01T07:16:00Z,27.7929,-90.2375,10.0,24.9,11111222
Freeport,ioos:station:wmo:42888:1,2020-04-01T07:26:00Z,27.7928,-90.2376,10.0,25.0,11111222
Freeport,ioos:station:wmo:42888:1,2020-04-01T07:36:00Z,27.7928,-90.2372,10.0,25.1,11111222
Freeport,ioos:station:wmo:42888:1,2020-04-01T07:46:00Z,27.7928,-90.2371,10.0,25.0,11111222
Freeport,ioos:station:wmo:42888:1,2020-04-01T07:56:00Z,27.7927,-90.2372,10.0,25.1,11111222
Freeport,ioos:station:wmo:42888:1,2020-04-01T08:06:00Z,27.7928,-90.2371,10.0,25.0,11111222
Freeport,ioos:station:wmo:42888:1,2020-04-01T08:16:00Z,27.7928,-90.2372,10.0,25.0,11111222
Freeport,ioos:station:wmo:42888:1,2020-04-01T08:26:00Z,27.7928,-90.2371,10.0,25.1,11111222
Freeport,ioos:station:wmo:42888:1,2020-04-01T08:36:00Z,27.7928,-90.2372,10.0,25.1,11111222
Freeport,ioos:station:wmo:42888:1,2020-04-01T08:46:00Z,27.7928,-90.2372,10.0,25.0,11111222
Freeport,ioos:station:wmo:42888:1,2020-04-01T08:56:00Z,27.7928,-90.2371,10.0,25.0,11111222
Freeport,ioos:station:wmo:42888:1,2020-04-01T09:06:00Z,27.7928,-90.2371,10.0,25.1,11111222
Freeport,ioos:station:wmo:42888:1,2020-04-01T09:16:00Z,27.7928,-90.2371,10.0,25.0,11111222
Freeport,ioos:station:wmo:42888:1,2020-04-01T09:26:00Z,27.7928,-90.2372,10.0,25.0,11111222
Freeport,ioos:station:wmo:42888:1,2020-04-01T09:36:00Z,27.7928,-90.2372,10.0,25.0,11111222
Freeport,ioos:station:wmo:42888:1,2020-04-01T09:46:00Z,27.7928,-90.2372,10.0,25.1,11111222
Freeport,ioos:station:wmo:42888:1,2020-04-01T09:56:00Z,27.7928,-90.2371,10.0,25.2,11111222
Freeport,ioos:station:wmo:42888:1,2020-04-01T10:06:00Z,27.7927,-90.2371,10.0,25.0,11111222
Freeport,ioos:station:wmo:42888:1,2020-04-01T10:16:00Z,27.7928,-90.2372,10.0,25.0,11111222
Freeport,ioos:station:wmo:42888:1,2020-04-01T10:26:00Z,27.7928,-90.2371,10.0,25.0,11111222
Freeport,ioos:station:wmo:42888:1,2020-04-01T11:26:00Z,27.7928,-90.2371,10.0,25.0,11111222
Freeport,ioos:station:wmo:42888:1,2020-04-01T11:36:00Z,27.7926,-90.2369,10.0,25.1,11111222
Freeport,ioos:station:wmo:42888:1,2020-04-01T11:46:00Z,27.7926,-90.2369,10.0,25.0,11111222
Freeport,ioos:station:wmo:42888:1,2020-04-01T11:56:00Z,27.7926,-90.2369,10.0,24.9,11111222
Freeport,ioos:station:wmo:42888:1,2020-04-01T12:06:00Z,27.7926,-90.2369,10.0,24.8,11111222
Freeport,ioos:station:wmo:42888:1,2020-04-01T12:16:00Z,27.7927,-90.2369,10.0,25.0,11111222
Freeport,ioos:station:wmo:42888:1,2020-04-01T12:26:00Z,27.7926,-90.2369,10.0,24.9,11111222
Freeport,ioos:station:wmo:42888:1,2020-04-01T12:36:00Z,27.7926,-90.2369,10.0,24.9,11111222
Freeport,ioos:station:wmo:42888:1,2020-04-01T12:46:00Z,27.7926,-90.2369,10.0,24.9,11111222
Freeport,ioos:station:wmo:42888:1,2020-04-01T12:56:00Z,27.7926,-90.2369,10.0,24.9,11111222
Freeport,ioos:station:wmo:42888:1,2020-04-01T13:06:00Z,27.7927,-90.2369,10.0,24.9,11111222
Freeport,ioos:station:wmo:42888:1,2020-04-01T13:16:00Z,27.7926,-90.2369,10.0,24.9,11111222
Freeport,ioos:station:wmo:42888:1,2020-04-01T13:26:00Z,27.7926,-90.2369,10.0,24.9,11111222
Freeport,ioos:station:wmo:42888:1,2020-04-01T13:36:00Z,27.7926,-90.2369,10.0,24.9,11111222
Freeport,ioos:station:wmo:42888:1,2020-04-01T13:46:00Z,27.7927,-90.2369,10.0,24.9,11111222
Freeport,ioos:station:wmo:42888:1,2020-04-01T13:56:00Z,27.7926,-90.2369,10.0,25.0,11111222
Freeport,ioos:station:wmo:42888:1,2020-04-01T14:06:00Z,27.7926,-90.2369,10.0,24.9,11111222
Freeport,ioos:station:wmo:42888:1,2020-04-01T14:16:00Z,27.7926,-90.2369,10.0,24.9,11111222
Freeport,ioos:station:wmo:42888:1,2020-04-01T14:26:00Z,27.7926,-90.2369,10.0,24.9,11111222
Freeport,ioos:station:wmo:42888:1,2020-04-01T14:36:00Z,27.7926,-90.2369,10.0,25.0,11111222
Freeport,ioos:station:wmo:42888:1,2020-04-01T14:46:00Z,27.7926,-90.2369,10.0,24.9,11111222
Freeport,ioos:station:wmo:42888:1,2020-04-01T14:56:00Z,27.7926,-90.2369,10.0,24.9,11111222
Freeport,ioos:station:wmo:42888:1,2020-04-01T15:06:00Z,27.7926,-90.2369,10.0,24.9,11111222
Freeport,ioos:station:wmo:42888:1,2020-04-01T15:16:00Z,27.7926,-90.2369,10.0,24.9,11111222
Freeport,ioos:station:wmo:42888:1,2020-04-01T15:26:00Z,27.7926,-90.2369,10.0,24.9,11111222
Freeport,ioos:station:wmo:42888:1,2020-04-01T15:36:00Z,27.7926,-90.2369,10.0,24.9,11111222
Freeport,ioos:station:wmo:42888:1,2020-04-01T15:46:00Z,27.7926,-90.2369,10.0,25.0,11111222
Freeport,ioos:station:wmo:42888:1,2020-04-01T15:56:00Z,27.7926,-90.2369,10.0,24.9,11111222
Freeport,ioos:station:wmo:42888:1,2020-04-01T16:06:00Z,27.7926,-90.2369,10.0,24.9,11111222
Freeport,ioos:station:wmo:42888:1,2020-04-01T16:16:00Z,27.7926,-90.2369,10.0,25.0,11111222
Freeport,ioos:station:wmo:42888:1,2020-04-01T16:26:00Z,27.7926,-90.2369,10.0,25.0,11111222
Freeport,ioos:station:wmo:42888:1,2020-04-01T16:36:00Z,27.7925,-90.2368,10.0,25.0,11111222
Freeport,ioos:station:wmo:42888:1,2020-04-01T16:46:00Z,27.7925,-90.2368,10.0,24.9,11111222
Freeport,ioos:station:wmo:42888:1,2020-04-01T16:56:00Z,27.7925,-90.2368,10.0,25.1,11111222
Freeport,ioos:station:wmo:42888:1,2020-04-01T17:06:00Z,27.7925,-90.2368,10.0,24.9,11111222
Freeport,ioos:station:wmo:42888:1,2020-04-01T17:16:00Z,27.7925,-90.2368,10.0,25.0,11111222
Freeport,ioos:station:wmo:42888:1,2020-04-01T17:26:00Z,27.7925,-90.2368,10.0,24.9,11111222
Freeport,ioos:station:wmo:42888:1,2020-04-01T17:36:00Z,27.7925,-90.2368,10.0,25.0,11111222
Freeport,ioos:station:wmo:42888:1,2020-04-01T17:46:00Z,27.7925,-90.2368,10.0,24.9,11111222
Freeport,ioos:station:wmo:42888:1,2020-04-01T17:56:00Z,27.7924,-90.2368,10.0,24.9,11111222
Freeport,ioos:station:wmo:42888:1,2020-04-01T18:06:00Z,27.7925,-90.2368,10.0,25.0,11111222
Freeport,ioos:station:wmo:42888:1,2020-04-01T18:16:00Z,27.7925,-90.2368,10.0,25.0,11111222
Freeport,ioos:station:wmo:42888:1,2020-04-01T18:26:00Z,27.7925,-90.2368,10.0,25.0,11111222
Freeport,ioos:station:wmo:42888:1,2020-04-01T18:36:00Z,27.7925,-90.2368,10.0,25.0,11111222
Freeport,ioos:station:wmo:42888:1,2020-04-01T18:46:00Z,27.7925,-90.2368,10.0,25.0,11111222
Freeport,ioos:station:wmo:42888:1,2020-04-01T18:56:00Z,27.7925,-90.2368,10.0,25.1,11111222
Freeport,ioos:station:wmo:42888:1,2020-04-01T19:06:00Z,27.7924,-90.2368,10.0,25.0,11111222
Freeport,ioos:station:wmo:42888:1,2020-04-01T19:16:00Z,27.7925,-90.2368,10.0,25.0,11111222
Freeport,ioos:station:wmo:42888:1,2020-04-01T19:26:00Z,27.7925,-90.2368,10.0,25.0,11111222
Freeport,ioos:station:wmo:42888:1,2020-04-01T19:36:00Z,27.7925,-90.2368,10.0,25.0,11111222
Freeport,ioos:station:wmo:42888:1,2020-04-01T19:46:00Z,27.7924,-90.2368,10.0,24.9,11111222
Freeport,ioos:station:wmo:42888:1,2020-04-01T19:56:00Z,27.7925,-90.2368,10.0,25.1,11111222
Freeport,ioos:station:wmo:42888:1,2020-04-01T20:06:00Z,27.7925,-90.2368,10.0,25.1,11111222
Freeport,ioos:station:wmo:42888:1,2020-04-01T20:16:00Z,27.7924,-90.2368,10.0,25.0,11111222
Freeport,ioos:station:wmo:42888:1,2020-04-01T20:26:00Z,27.7924,-90.2368,10.0,25.0,11111222
Freeport,ioos:station:wmo:42888:1,2020-04-01T20:36:00Z,27.7925,-90.2368,10.0,25.0,11111222
Freeport,ioos:station:wmo:42888:1,2020-04-01T20:46:00Z,27.7925,-90.2368,10.0,25.0,11111222
Freeport,ioos:station:wmo:42888:1,2020-04-01T20:56:00Z,27.7925,-90.2368,10.0,25.0,11111222
Freeport,ioos:station:wmo:42888:1,2020-04-01T21:06:00Z,27.7925,-90.2368,10.0,25.1,11111222
Freeport,ioos:station:wmo:42888:1,2020-04-01T21:16:00Z,27.7925,-90.2368,10.0,25.1,11111222
Freeport,ioos:station:wmo:42888:1,2020-04-01T21:26:00Z,27.7925,-90.2368,10.0,25.0,11111222
Freeport,ioos:station:wmo:42888:1,2020-04-01T21:36:00Z,27.7925,-90.2368,10.0,25.0,11111222
Freeport,ioos:station:wmo:42888:1,2020-04-01T21:46:00Z,27.7925,-90.2368,10.0,25.0,11111222
Freeport,ioos:station:wmo:42888:1,2020-04-01T21:56:00Z,27.7924,-90.2368,10.0,25.1,11111222
Freeport,ioos:station:wmo:42888:1,2020-04-01T22:06:00Z,27.7924,-90.2368,10.0,25.0,11111222
Freeport,ioos:station:wmo:42888:1,2020-04-01T22:16:00Z,27.7925,-90.2368,10.0,24.9,11111222
Freeport,ioos:station:wmo:42888:1,2020-04-01T22:26:00Z,27.7925,-90.2368,10.0,24.9,11111222
Freeport,ioos:station:wmo:42888:1,2020-04-01T22:36:00Z,27.7925,-90.2368,10.0,25.1,11111222
Freeport,ioos:station:wmo:42888:1,2020-04-01T22:46:00Z,27.7925,-90.2368,10.0,25.2,11111222
Freeport,ioos:station:wmo:42888:1,2020-04-01T22:56:00Z,27.7925,-90.2368,10.0,25.0,11111222
Freeport,ioos:station:wmo:42888:1,2020-04-01T23:06:00Z,27.7925,-90.2368,10.0,25.1,11111222
Freeport,ioos:station:wmo:42888:1,2020-04-01T23:16:00Z,27.7924,-90.2368,10.0,25.1,11111222
Freeport,ioos:station:wmo:42888:1,2020-04-01T23:26:00Z,27.7925,-90.2368,10.0,25.0,11111222
Freeport,ioos:station:wmo:42888:1,2020-04-01T23:36:00Z,27.7925,-90.2368,10.0,25.1,11111222
Freeport,ioos:station:wmo:42888:1,2020-04-01T23:46:00Z,27.7924,-90.2368,10.0,25.0,11111222
Freeport,ioos:station:wmo:42888:1,2020-04-01T23:56:00Z,27.7925,-90.2368,10.0,25.4,11111222
Freeport,ioos:station:wmo:42888:1,2020-04-02T00:06:00Z,27.7924,-90.2368,10.0,25.0,11111222
Freeport,ioos:station:wmo:42888:1,2020-04-02T00:16:00Z,27.7925,-90.2368,10.0,25.0,11111222
Freeport,ioos:station:wmo:42888:1,2020-04-02T00:26:00Z,27.7925,-90.2368,10.0,25.1,11111222
Freeport,ioos:station:wmo:42888:1,2020-04-02T00:36:00Z,27.7925,-90.2368,10.0,25.1,11111222
Freeport,ioos:station:wmo:42888:1,2020-04-02T00:46:00Z,27.7925,-90.2368,10.0,24.9,11111222
Freeport,ioos:station:wmo:42888:1,2020-04-02T00:56:00Z,27.7925,-90.2368,10.0,25.2,11111222
Freeport,ioos:station:wmo:42888:1,2020-04-02T01:06:00Z,27.7924,-90.2368,10.0,24.9,11111222
Freeport,ioos:station:wmo:42888:1,2020-04-02T01:16:00Z,27.7925,-90.2368,10.0,24.9,11111222
Freeport,ioos:station:wmo:42888:1,2020-04-02T01:26:00Z,27.7925,-90.2368,10.0,25.0,11111222
Freeport,ioos:station:wmo:42888:1,2020-04-02T01:36:00Z,27.7925,-90.2368,10.0,24.9,11111222
Freeport,ioos:station:wmo:42888:1,2020-04-02T01:46:00Z,27.7925,-90.2368,10.0,24.9,11111222
Freeport,ioos:station:wmo:42888:1,2020-04-02T01:56:00Z,27.7925,-90.2368,10.0,24.9,11111222
Freeport,ioos:station:wmo:42888:1,2020-04-02T02:06:00Z,27.7924,-90.2368,10.0,24.9,11111222
Freeport,ioos:station:wmo:42888:1,2020-04-02T02:16:00Z,27.7925,-90.2368,10.0,24.9,11111222
Freeport,ioos:station:wmo:42888:1,2020-04-02T02:26:00Z,27.7925,-90.2368,10.0,24.9,11111222
Freeport,ioos:station:wmo:42888:1,2020-04-02T02:36:00Z,27.7926,-90.2369,10.0,24.9,11111222
Freeport,ioos:station:wmo:42888:1,2020-04-02T02:46:00Z,27.7925,-90.2368,10.0,25.0,11111222
Freeport,ioos:station:wmo:42888:1,2020-04-02T02:56:00Z,27.7925,-90.2368,10.0,25.2,11111222
Freeport,ioos:station:wmo:42888:1,2020-04-02T03:06:00Z,27.7925,-90.2368,10.0,24.9,11111222
Freeport,ioos:station:wmo:42888:1,2020-04-02T03:16:00Z,27.7925,-90.2368,10.0,24.9,11111222
Freeport,ioos:station:wmo:42888:1,2020-04-02T03:26:00Z,27.7925,-90.2368,10.0,24.9,11111222
Freeport,ioos:station:wmo:42888:1,2020-04-02T03:36:00Z,27.7925,-90.2368,10.0,25.0,11111222
Freeport,ioos:station:wmo:42888:1,2020-04-02T03:46:00Z,27.7924,-90.2368,10.0,23.6,11111222
Freeport,ioos:station:wmo:42888:1,2020-04-02T03:56:00Z,27.7925,-90.2368,10.0,24.3,11111222
Freeport,ioos:station:wmo:42888:1,2020-04-02T04:06:00Z,27.7925,-90.2368,10.0,24.9,11111222
Freeport,ioos:station:wmo:42888:1,2020-04-02T04:16:00Z,27.7924,-90.2368,10.0,24.9,11111222
Freeport,ioos:station:wmo:42888:1,2020-04-02T04:26:00Z,27.7925,-90.2368,10.0,25.0,11111222
Freeport,ioos:station:wmo:42888:1,2020-04-02T05:32:00Z,27.7925,-90.2368,10.0,24.9,11111222
Freeport,ioos:station:wmo:42888:1,2020-04-02T05:42:00Z,27.7925,-90.2368,10.0,25.0,11111222
Freeport,ioos:station:wmo:42888:1,2020-04-02T05:52:00Z,27.7925,-90.2368,10.0,24.9,11111222
Freeport,ioos:station:wmo:42888:1,2020-04-02T06:02:00Z,27.7925,-90.2368,10.0,24.9,11111222
Freeport,ioos:station:wmo:42888:1,2020-04-02T06:12:00Z,27.7925,-90.2368,10.0,24.9,11111222
Freeport,ioos:station:wmo:42888:1,2020-04-02T06:22:00Z,27.7925,-90.2368,10.0,24.9,11111222
Freeport,ioos:station:wmo:42888:1,2020-04-02T06:32:00Z,27.7922,-90.2367,10.0,24.8,11111222
Freeport,ioos:station:wmo:42888:1,2020-04-02T06:42:00Z,27.7919,-90.2368,10.0,24.8,11111222
Freeport,ioos:station:wmo:42888:1,2020-04-02T06:52:00Z,27.7918,-90.2368,10.0,24.9,11111222
Freeport,ioos:station:wmo:42888:1,2020-04-02T07:02:00Z,27.7919,-90.2367,10.0,24.8,11111222
Freeport,ioos:station:wmo:42888:1,2020-04-02T07:12:00Z,27.7918,-90.2368,10.0,24.8,11111222
Freeport,ioos:station:wmo:42888:1,2020-04-02T07:22:00Z,27.7919,-90.2368,10.0,24.8,11111222
Freeport,ioos:station:wmo:42888:1,2020-04-02T07:32:00Z,27.7919,-90.2368,10.0,24.9,11111222
Freeport,ioos:station:wmo:42888:1,2020-04-02T07:42:00Z,27.7919,-90.2367,10.0,25.7,11111222
Freeport,ioos:station:wmo:42888:1,2020-04-02T07:52:00Z,27.7919,-90.2367,10.0,24.9,11111222
Freeport,ioos:station:wmo:42888:1,2020-04-02T08:02:00Z,27.7918,-90.2368,10.0,24.8,11111222
Freeport,ioos:station:wmo:42888:1,2020-04-02T08:12:00Z,27.7918,-90.2367,10.0,24.9,11111222
Freeport,ioos:station:wmo:42888:1,2020-04-02T08:22:00Z,27.7918,-90.2368,10.0,24.8,11111222
Freeport,ioos:station:wmo:42888:1,2020-04-02T08:32:00Z,27.7918,-90.2368,10.0,25.4,11111222
Freeport,ioos:station:wmo:42888:1,2020-04-02T08:42:00Z,27.7918,-90.2368,10.0,24.9,11111222
Freeport,ioos:station:wmo:42888:1,2020-04-02T08:52:00Z,27.7918,-90.2368,10.0,24.9,11111222
Freeport,ioos:station:wmo:42888:1,2020-04-02T09:02:00Z,27.7918,-90.2368,10.0,24.8,11111222
Freeport,ioos:station:wmo:42888:1,2020-04-02T09:12:00Z,27.7918,-90.2368,10.0,24.9,11111222
Freeport,ioos:station:wmo:42888:1,2020-04-02T09:22:00Z,27.7918,-90.2368,10.0,24.8,11111222
Freeport,ioos:station:wmo:42888:1,2020-04-02T09:32:00Z,27.7919,-90.2368,10.0,24.9,11111222
Freeport,ioos:station:wmo:42888:1,2020-04-02T09:42:00Z,27.7918,-90.2368,10.0,24.3,11111222
Freeport,ioos:station:wmo:42888:1,2020-04-02T09:52:00Z,27.7918,-90.2368,10.0,24.8,11111222
Freeport,ioos:station:wmo:42888:1,2020-04-02T10:02:00Z,27.7919,-90.2368,10.0,24.9,11111222
Freeport,ioos:station:wmo:42888:1,2020-04-02T10:12:00Z,27.7918,-90.2368,10.0,24.9,11111222
Freeport,ioos:station:wmo:42888:1,2020-04-02T10:22:00Z,27.7918,-90.2367,10.0,24.8,11111222
Freeport,ioos:station:wmo:42888:1,2020-04-02T10:32:00Z,27.7918,-90.2368,10.0,24.9,11111222
Freeport,ioos:station:wmo:42888:1,2020-04-02T11:32:00Z,27.7918,-90.2367,10.0,24.8,11111222
Freeport,ioos:station:wmo:42888:1,2020-04-02T11:42:00Z,27.7918,-90.2368,10.0,24.9,11111222
Freeport,ioos:station:wmo:42888:1,2020-04-02T11:52:00Z,27.7919,-90.2368,10.0,24.8,11111222
Freeport,ioos:station:wmo:42888:1,2020-04-02T12:02:00Z,27.7918,-90.2368,10.0,24.4,11111222
Freeport,ioos:station:wmo:42888:1,2020-04-02T12:12:00Z,27.7919,-90.2368,10.0,24.7,11111222
Freeport,ioos:station:wmo:42888:1,2020-04-02T12:22:00Z,27.7919,-90.2368,10.0,24.9,11111222
Freeport,ioos:station:wmo:42888:1,2020-04-02T12:32:00Z,27.7918,-90.2368,10.0,24.8,11111222
Freeport,ioos:station:wmo:42888:1,2020-04-02T12:42:00Z,27.7919,-90.2368,10.0,26.3,11111222
Freeport,ioos:station:wmo:42888:1,2020-04-02T12:52:00Z,27.7919,-90.2368,10.0,24.8,11111222
Freeport,ioos:station:wmo:42888:1,2020-04-02T13:02:00Z,27.7919,-90.2368,10.0,23.1,11111222
Freeport,ioos:station:wmo:42888:1,2020-04-02T13:12:00Z,27.7919,-90.2368,10.0,24.7,11111222
Freeport,ioos:station:wmo:42888:1,2020-04-02T13:22:00Z,27.7919,-90.2368,10.0,24.8,11111222
Freeport,ioos:station:wmo:42888:1,2020-04-02T13:32:00Z,27.7919,-90.2368,10.0,24.8,11111222
Freeport,ioos:station:wmo:42888:1,2020-04-02T13:42:00Z,27.7918,-90.2368,10.0,25.8,11111222
Freeport,ioos:station:wmo:42888:1,2020-04-02T13:52:00Z,27.7919,-90.2368,10.0,24.8,11111222
Freeport,ioos:station:wmo:42888:1,2020-04-02T14:02:00Z,27.7919,-90.2367,10.0,24.8,11111222
Freeport,ioos:station:wmo:42888:1,2020-04-02T14:12:00Z,27.7918,-90.2368,10.0,24.8,11111222
Freeport,ioos:station:wmo:42888:1,2020-04-02T14:22:00Z,27.7918,-90.2368,10.0,24.7,11111222
Freeport,ioos:station:wmo:42888:1,2020-04-02T14:32:00Z,27.7918,-90.2367,10.0,24.8,11111222
Freeport,ioos:station:wmo:42888:1,2020-04-02T14:42:00Z,27.7919,-90.2368,10.0,24.9,11111222
Freeport,ioos:station:wmo:42888:1,2020-04-02T14:52:00Z,27.7918,-90.2367,10.0,24.7,11111222
Freeport,ioos:station:wmo:42888:1,2020-04-02T15:02:00Z,27.7918,-90.2368,10.0,24.8,11111222
Freeport,ioos:station:wmo:42888:1,2020-04-02T15:12:00Z,27.7918,-90.2368,10.0,24.9,11111222
Freeport,ioos:station:wmo:42888:1,2020-04-02T15:22:00Z,27.7919,-90.2368,10.0,24.8,11111222
Freeport,ioos:station:wmo:42888:1,2020-04-02T15:32:00Z,27.7919,-90.2368,10.0,24.9,11111222
Freeport,ioos:station:wmo:42888:1,2020-04-02T15:42:00Z,27.7918,-90.2368,10.0,24.9,11111222
Freeport,ioos:station:wmo:42888:1,2020-04-02T15:52:00Z,27.7918,-90.2367,10.0,24.8,11111222
Freeport,ioos:station:wmo:42888:1,2020-04-02T16:02:00Z,27.7918,-90.2367,10.0,23.7,11111222
Freeport,ioos:station:wmo:42888:1,2020-04-02T16:12:00Z,27.7918,-90.2367,10.0,24.7,11111222
Freeport,ioos:station:wmo:42888:1,2020-04-02T16:22:00Z,27.7918,-90.2368,10.0,24.8,11111222
Freeport,ioos:station:wmo:42888:1,2020-04-02T16:32:00Z,27.7918,-90.2368,10.0,24.8,11111222
Freeport,ioos:station:wmo:42888:1,2020-04-02T16:42:00Z,27.7918,-90.2368,10.0,23.6,11111222
Freeport,ioos:station:wmo:42888:1,2020-04-02T16:52:00Z,27.7916,-90.2370,10.0,24.7,11111222
Freeport,ioos:station:wmo:42888:1,2020-04-02T17:02:00Z,27.7915,-90.2371,10.0,24.9,11111222
Freeport,ioos:station:wmo:42888:1,2020-04-02T17:12:00Z,27.7915,-90.2371,10.0,24.8,11111222
Freeport,ioos:station:wmo:42888:1,2020-04-02T17:22:00Z,27.7915,-90.2371,10.0,24.8,11111222
Freeport,ioos:station:wmo:42888:1,2020-04-02T17:32:00Z,27.7915,-90.2371,10.0,24.8,11111222
Freeport,ioos:station:wmo:42888:1,2020-04-02T17:42:00Z,27.7915,-90.2371,10.0,24.8,11111222
Freeport,ioos:station:wmo:42888:1,2020-04-02T17:52:00Z,27.7915,-90.2371,10.0,24.7,11111222
Freeport,ioos:station:wmo:42888:1,2020-04-02T18:02:00Z,27.7915,-90.2371,10.0,25.3,11111222
Freeport,ioos:station:wmo:42888:1,2020-04-02T18:12:00Z,27.7915,-90.2371,10.0,24.9,11111222
Freeport,ioos:station:wmo:42888:1,2020-04-02T18:22:00Z,27.7915,-90.2371,10.0,24.9,11111222
Freeport,ioos:station:wmo:42888:1,2020-04-02T18:32:00Z,27.7915,-90.2371,10.0,24.1,11111222
Freeport,ioos:station:wmo:42888:1,2020-04-02T18:42:00Z,27.7915,-90.2371,10.0,24.8,11111222
Freeport,ioos:station:wmo:42888:1,2020-04-02T18:52:00Z,27.7915,-90.2371,10.0,24.9,11111222
Freeport,ioos:station:wmo:42888:1,2020-04-02T19:02:00Z,27.7915,-90.2371,10.0,24.9,11111222
Freeport,ioos:station:wmo:42888:1,2020-04-02T19:12:00Z,27.7915,-90.2371,10.0,24.8,11111222
Freeport,ioos:station:wmo:42888:1,2020-04-02T19:22:00Z,27.7915,-90.2371,10.0,24.8,11111222
Freeport,ioos:station:wmo:42888:1,2020-04-02T19:32:00Z,27.7915,-90.2371,10.0,24.7,11111222
Freeport,ioos:station:wmo:42888:1,2020-04-02T19:42:00Z,27.7915,-90.2371,10.0,24.8,11111222
Freeport,ioos:station:wmo:42888:1,2020-04-02T19:52:00Z,27.7915,-90.2371,10.0,24.8,11111222
Freeport,ioos:station:wmo:42888:1,2020-04-02T20:02:00Z,27.7915,-90.2371,10.0,24.8,11111222
Freeport,ioos:station:wmo:42888:1,2020-04-02T20:12:00Z,27.7915,-90.2371,10.0,24.5,11111222
Freeport,ioos:station:wmo:42888:1,2020-04-02T20:22:00Z,27.7915,-90.2371,10.0,24.7,11111222
Freeport,ioos:station:wmo:42888:1,2020-04-02T20:32:00Z,27.7916,-90.2371,10.0,25.9,11111222
Freeport,ioos:station:wmo:42888:1,2020-04-02T20:42:00Z,27.7915,-90.2371,10.0,24.8,11111222
Freeport,ioos:station:wmo:42888:1,2020-04-02T20:52:00Z,27.7914,-90.2371,10.0,24.7,11111222
Freeport,ioos:station:wmo:42888:1,2020-04-02T21:02:00Z,27.7915,-90.2371,10.0,24.3,11111222
Freeport,ioos:station:wmo:42888:1,2020-04-02T21:12:00Z,27.7915,-90.2372,10.0,23.2,11111222
Freeport,ioos:station:wmo:42888:1,2020-04-02T21:22:00Z,27.7915,-90.2372,10.0,24.9,11111222
Freeport,ioos:station:wmo:42888:1,2020-04-02T21:32:00Z,27.7914,-90.2371,10.0,24.9,11111222
Freeport,ioos:station:wmo:42888:1,2020-04-02T21:42:00Z,27.7914,-90.2371,10.0,24.8,11111222